{"data":{"norad_id":58832,"intl_designator":"2024-017G","name":"STARLINK-31263","alt_names":[],"object_type":"PAYLOAD","status":"ACTIVE","operator":null,"country":"US","launch_date":"2024-01-24","launch_site_code":"AFWTR","launch_vehicle":null,"mission":null,"orbit_class":"UNKNOWN","rcs_meters":null,"size_class":null,"mass_kg":null,"dimensions":null,"purposes":["comms"],"wikipedia_slug":null,"has_3d_model":false,"image_url":null,"decayed_at":null,"tle_current":{"epoch":"2026-05-25T04:00:03.998880Z","epoch_age_seconds":56589,"freshness":"FRESH","line1":"1 58832U 24017G   26145.16671295  .00024805  00000+0  76310-3 0  9993","line2":"2 58832  53.1591 198.6106 0001429 103.5957 225.4979 15.33546060  5690","mean_motion":15.3354606,"eccentricity":0.0001429,"inclination_deg":53.1591,"raan_deg":198.6106,"arg_perigee_deg":103.5957,"mean_anomaly_deg":225.4979,"bstar":0.0007631,"rev_number":569,"period_min":93.900016279915,"perigee_km":464.26458860081,"apogee_km":466.22042646406,"semimajor_km":6843.3795075324,"source":"CELESTRAK","updated_at":"2026-05-25T13:38:18.754022Z"}}}